Weather History for KGNV - May, 2013

Change the Weather History Date:

Saturday, May 11, 2013

  Actual Average Record
Temperature  
Mean Temperature 76 °F 74 °F  
Max Temperature 88 °F 86 °F 98 °F (1955)
Min Temperature 63 °F 61 °F 45 °F (1923)
Degree Days  
Heating Degree Days 0 0  
Month to date heating degree days 2 0  
Since 1 July heating degree days 1038 1214  
Cooling Degree Days 11 9  
Month to date cooling degree days 52 84  
Year to date cooling degree days 338 291  
Growing Degree Days 25 (Base 50)    
Moisture  
Dew Point 66 °F    
Average Humidity 72    
Maximum Humidity 93    
Minimum Humidity 50    
Precipitation  
Precipitation 0.17 in 0.06 in 2.58 in (1968)
Month to date precipitation 3.63 0.69  
Year to date precipitation 10.06 14.20  
Snow  
Snow 0.00 in 0.00 in 0.00 in ()
Month to date snowfall 0.0 0.0  
Since 1 July snowfall 0.0 0.0  
Snow Depth 0.00 in    
Sea Level Pressure  
Sea Level Pressure 30.02 in    
Wind  
Wind Speed 6 mph (WSW)    
Max Wind Speed 21 mph    
Max Gust Speed 26 mph    
Visibility 9 miles    
Events Rain    
T = Trace of Precipitation, MM = Missing Value Source: NWS Daily Summary

Daily Weather History Graph

Daily Weather History Graph

Search for Another Location

Airport or City:

Trip Planner

Search our weather history database for the weather conditions in past years. The results will help you decide how hot, cold, wet, or windy it might be!

Date:

Astronomy

May. 11, 2013 Rise Set
Actual Time 6:38 AM EDT 8:12 PM EDT
Civil Twilight 6:12 AM EDT 8:38 PM EDT
Nautical Twilight 5:41 AM EDT 9:09 PM EDT
Astronomical Twilight 5:09 AM EDT 9:41 PM EDT
Moon 7:47 AM EDT (5/11) 9:49 PM EDT (5/11)
Length of Visible Light 14h 25m
Length of Day
13h 33m
Waxing Crescent, 3% of the Moon is Illuminated
May 11
Waxing Crescent
May 18
First Quarter
May 25
Full
May 31
Last Quarter
Jun 8
New

Hourly Weather History & Observations

Time (EDT) Temp. Heat Index Dew Point Humidity Pressure Visibility Wind Dir Wind Speed Gust Speed Precip Events Conditions
12:53 AM 64.0 °F - 59.0 °F 84% 30.06 in 10.0 mi Calm Calm - N/A   Clear
1:53 AM 64.9 °F - 59.0 °F 81% 30.06 in 10.0 mi West 4.6 mph - N/A   Clear
2:53 AM 64.0 °F - 60.1 °F 87% 30.03 in 10.0 mi West 4.6 mph - N/A   Clear
3:53 AM 63.0 °F - 59.0 °F 87% 30.02 in 9.0 mi Calm Calm - N/A   Clear
4:53 AM 64.0 °F - 61.0 °F 90% 30.00 in 9.0 mi Calm Calm - N/A   Clear
5:53 AM 66.9 °F - 62.1 °F 84% 30.00 in 10.0 mi Calm Calm - N/A   Mostly Cloudy
6:53 AM 68.0 °F - 64.0 °F 87% 30.02 in 10.0 mi Calm Calm - 0.00 in   Overcast
7:53 AM 69.1 °F - 64.9 °F 87% 30.03 in 7.0 mi Calm Calm - N/A   Overcast
8:53 AM 75.0 °F - 68.0 °F 79% 30.04 in 10.0 mi SW 3.5 mph - N/A   Scattered Clouds
9:53 AM 78.1 °F - 69.1 °F 74% 30.05 in 10.0 mi SSW 8.1 mph - N/A   Partly Cloudy
10:53 AM 80.1 °F 82.9 °F 69.1 °F 69% 30.04 in 10.0 mi WSW 11.5 mph - N/A   Mostly Cloudy
11:09 AM 82.4 °F 85.4 °F 68.0 °F 62% 30.04 in 10.0 mi SW 10.4 mph 18.4 mph N/A   Scattered Clouds
11:37 AM 82.4 °F 85.4 °F 68.0 °F 62% 30.04 in 10.0 mi WSW 12.7 mph - N/A   Mostly Cloudy
11:44 AM 82.4 °F 85.4 °F 68.0 °F 62% 30.04 in 10.0 mi West 10.4 mph - N/A   Mostly Cloudy
11:53 AM 82.0 °F 84.9 °F 68.0 °F 62% 30.03 in 10.0 mi WSW 10.4 mph - N/A   Mostly Cloudy
12:53 PM 84.9 °F 88.2 °F 68.0 °F 57% 30.01 in 10.0 mi West 12.7 mph 16.1 mph N/A   Scattered Clouds
1:53 PM 87.1 °F 89.2 °F 66.0 °F 49% 29.99 in 10.0 mi West 9.2 mph - N/A   Scattered Clouds
2:53 PM 87.1 °F 89.2 °F 66.0 °F 49% 29.98 in 10.0 mi SW 16.1 mph 21.9 mph N/A   Scattered Clouds
3:53 PM 84.0 °F 86.3 °F 66.0 °F 55% 29.99 in 10.0 mi West 17.3 mph 24.2 mph N/A   Mostly Cloudy
4:53 PM 82.0 °F 84.5 °F 66.9 °F 60% 29.99 in 10.0 mi West 13.8 mph 20.7 mph N/A   Scattered Clouds
5:53 PM 78.1 °F - 69.1 °F 74% 30.00 in 10.0 mi West 13.8 mph 23.0 mph 0.00 in Rain Light Rain
6:03 PM 77.0 °F - 69.8 °F 78% 30.01 in 10.0 mi West 15.0 mph 21.9 mph 0.00 in   Mostly Cloudy
6:30 PM 73.4 °F - 69.8 °F 88% 30.03 in 4.0 mi West 13.8 mph 18.4 mph 0.01 in Rain Rain
6:50 PM 73.4 °F - 69.8 °F 88% 30.04 in 5.0 mi West 8.1 mph - 0.02 in Rain Light Rain
6:53 PM 73.0 °F - 70.0 °F 90% 30.04 in 4.0 mi West 8.1 mph - 0.02 in Rain Light Rain
7:14 PM 71.6 °F - 69.8 °F 94% 30.04 in 3.0 mi WSW 10.4 mph - 0.06 in Rain Rain
7:53 PM 71.1 °F - 68.0 °F 90% 29.98 in 7.0 mi Calm Calm - 0.15 in Rain Light Rain
8:53 PM 69.1 °F - 66.9 °F 93% 29.96 in 8.0 mi SW 3.5 mph - 0.00 in   Clear
10:53 PM 68.0 °F - 66.0 °F 93% 30.00 in 8.0 mi Calm Calm - N/A   Clear
11:53 PM 68.0 °F - 66.0 °F 93% 30.01 in 9.0 mi Calm Calm - N/A   Clear